www.pogodaiklimat.ru

Погода и климат >> Архив погоды >> Россия >> Якутия >> Хабардино


ПОГОДА в Хабардино

  • Прогноз погоды в Хабардино
  • Монитор погоды в Хабардино

АРХИВ ПОГОДЫ в Хабардино

Время (UTC), дата Ветер
(напр.,м/с)
 
Видим.   Явления Облачность Т
(С)
Тd
(С)
f
(%)
Тe
(С)
Тes
(С)
Комфортность P
(гПа)
Po
(гПа)
Тmin
(С)
Tmax
(С)
R
(мм)
R24
(мм)
S
(см)
12 12.08 ЮЗ 1 20 км дым 8/0
[Ac trans Ci fib]
+16.4 +11.4 72 +17 +17 1007.0 977.8 +23.7
15 12.08 ЮЗ 1 10 км дым 4/0
[Ac trans]
+9.0 +7.3 89 +8 +8 1008.6 978.6
18 12.08 Ю 1 10 км дым 3/0
[Ac trans]
+5.1 +3.9 92 +4 +4 1009.8 979.3
21 12.08 ЮЗ 1 10 км дым 4/0
[Ci fib]
+2.2 +1.7 96 0 0 1011.0 980.1
00 13.08 штиль 0 10 км дым 3/0
[Ci fib]
+6.0 +5.5 97 +5 +9 1011.3 980.8 +2.1
03 13.08 штиль 0 10 км дым ясно +18.1 +10.9 63 +18 +29 1009.5 980.4
06 13.08 В 2 10 км дым 6/4 600 м
[Cb cap Ci fib]
+23.7 +8.6 38 +24 +29 комфорт 1008.2 979.6
09 13.08 В 1 20 км дым 6/5 600 м
[Cb cap Ci fib]
+24.8 +7.4 33 +25 +27 комфорт 1007.5 979.1
12 13.08 штиль 0 20 км дым 9/8 1000 м
[Sc Ac trans Ci fib]
+19.6 +12.5 64 +21 +21 комфорт 1008.6 979.6 +25.0
15 13.08 ЮЗ 2 10 км дым 4/4 1000 м
[Sc]
+10.1 +7.4 83 +9 +9 1010.1 980.1
18 13.08 Ю 1 10 км дым 3/0
[Ac trans]
+5.8 +4.4 91 +5 +5 1011.2 980.7
21 13.08 штиль 0 20 км дым 3/0
[Ci fib]
+3.0 +2.5 97 +2 +2 1011.8 981.0
00 14.08 штиль 0 20 км дым ясно +5.6 +5.1 97 +4 +9 1011.8 981.3 +2.9
03 14.08 СЗ 1 30 км дым 4/0
[Ac trans Ci fib]
+19.2 +10.3 56 +21 +29 комфорт 1009.6 980.6
06 14.08 СВ 2 20 км дым 6/4 600 м
[Cb cap Ci fib]
+25.5 +7.4 32 +26 +30 жарко 1008.7 980.3
09 14.08 В 2 10 км дым 6/3 1000 м
[Sc Ci fib]
+24.8 +7.4 33 +25 +27 комфорт 1008.6 980.1
12 14.08 ЮЗ 2 10 км дым 4/4 1000 м
[Sc]
+10.1 +7.4 83 +9 +9 1010.1 980.1
15 14.08 ЮЗ 1 10 км дым 8/8 1000 м
[Sc]
+10.8 +7.5 80 +11 +11 1012.3 982.4
18 14.08 ЮЗ 1 10 км дым 8/8 1000 м
[Sc]
+8.4 +7.1 92 +8 +8 1013.5 983.3
21 14.08 20 км дым 4/4 1000 м
[Sc]
+7.4 +6.7 95 1015.4 984.9
00 15.08 СВ 1 20 км дым 9/6 600 м
[Cb cap Ac trans Ci fib]
+10.4 +9.0 91 +10 +11 1016.3 986.2 +7.3
03 15.08 СВ 3 50 км 10/10 600 м
[Cb cap]
+17.2 +11.5 69 +17 +17 1015.9 986.5
06 15.08 СВ 2 50 км 9/8 1000 м
[Sc Ac trans]
+19.4 +11.0 58 +21 +22 комфорт 1015.9 986.7
09 15.08 СВ 4 50 км 9/8 1000 м
[Sc Ac trans Ci fib]
+18.1 +10.3 60 +18 +18 1016.5 987.2
12 15.08 СВ 2 50 км 8/8 1000 м
[Sc]
+15.3 +9.7 69 +15 +15 1017.8 988.2 +19.6
15 15.08 СВ 1 20 км 10/10 1000 м
[Sc]
+12.4 +9.0 80 +12 +12 1018.8 988.8
18 15.08 СВ 1 20 км 10/10 1000 м
[Sc]
+9.8 +8.6 92 +9 +9 1019.8 989.5
21 15.08 СВ 1 50 км 10/10 1000 м
[Sc]
+10.6 +7.9 83 +10 +10 1020.2 990.0
00 16.08 СВ 2 50 км 10/10 600 м
[Cb cap]
+10.8 +7.9 82 +9 +9 1020.7 990.5 +9.7
03 16.08 В 2 50 км 9/9 600 м
[Cb cap]
+12.9 +8.1 73 +12 +13 1020.4 990.4
06 16.08 С 2 50 км 8/0
[Ac trans Ci fib]
+18.6 +9.3 55 +20 +25 1018.3 988.9
09 16.08 С 2 50 км 9/0
[Ci fib]
+19.1 +9.5 54 +20 +23 1017.6 988.3
12 16.08 штиль 0 50 км 8/0
[Ac trans Ci fib]
+16.1 +10.2 68 +16 +16 1017.8 988.3 +19.5
15 16.08 ЮЗ 1 20 км 6/0
[Ac trans Ci fib]
+6.6 +5.5 93 +5 +5 1019.4 988.8
18 16.08 Ю 1 20 км 4/0
[Ci fib]
+4.1 +3.1 93 +3 +3 1020.4 989.7
21 16.08 ЮЗ 1 50 км 8/5 1000 м
[Sc Ac trans Ci fib]
+4.6 +3.6 93 +3 +3 1020.1 989.1
00 17.08 штиль 0 50 км 10/10 1000 м
[Sc]
+9.6 +6.1 79 +9 +9 1019.6 989.1 +4.0
03 17.08 В 3 50 км 4/3 1000 м
[Sc Ci fib]
+17.7 +3.0 37 +18 +22 1017.4 988.0
06 17.08 СВ 4 50 км ясно +20.5 +0.9 27 +21 +26 комфорт 1015.9 986.7
09 17.08 СВ 3 50 км ясно +21.4 +2.2 28 +21 +24 комфорт 1015.1 986.0
12 17.08 В 2 50 км 4/0
[Ci fib]
+19.0 +1.3 31 +20 +20 1015.7 986.4 +22.0
15 17.08 ЮЗ 2 20 км 4/0
[Ci fib]
+6.5 +1.0 68 +4 +4 1017.4 986.7
18 17.08 ЮЗ 1 20 км ясно +4.3 +0.9 79 +3 +3 1018.4 987.5
21 17.08 ЮЗ 1 50 км 8/5 1000 м
[Sc Ac trans]
+1.8 -0.1 87 0 0 1018.2 987.0
00 18.08 штиль 0 50 км 8/8 1000 м
[Sc]
+7.7 +3.2 73 +7 +8 1017.4 987.0 +1.7
03 18.08 В 3 50 км 9/5 1000 м
[Sc Ci fib]
+18.1 +3.9 39 +18 +21 1015.3 985.9
06 18.08 В 3 50 км 8/8 600 м
[Cb cap]
+20.9 +7.3 41 +22 +24 комфорт 1013.6 984.6
09 18.08 В 2 50 км 9/8 600 м
[Cb cap Ci fib]
+18.3 +9.8 58 +19 +20 1013.9 984.7
12 18.08 В 1 50 км 9/9 600 м
[Cb cap]
+17.9 +10.5 62 +19 +19 1014.1 984.8 +21.2
15 18.08 ЮЗ 1 20 км 8/8 1000 м
[Sc]
+10.2 +7.9 86 +10 +10 1015.2 985.1
18 18.08 Ю 1 20 км 6/6 1000 м
[Sc]
+7.0 +5.7 91 +6 +6 1016.1 985.6
21 18.08 ЮЗ 1 50 км 8/5 1000 м
[Sc Ac trans]
+4.0 +3.5 97 +2 +2 1015.6 984.8
00 19.08 штиль 0 50 км 10/10 600 м
[Cb cap]
+9.9 +7.6 86 +9 +9 1014.2 984.1 +3.9
03 19.08 СВ 1 50 км 9/9 600 м
[Cb cap]
+16.9 +10.5 66 +18 +19 1012.6 983.2

 

Местоположение метеостанции Хабардино (Якутия, Россия): широта 64.60 долгота 112.50 высота над уровнем моря 251 м.

В архиве по умолчанию представлена погода в Хабардино за последнюю неделю. Архивные данные за месяц целиком и за предыдущие месяцы, начиная с января 2011 года, Вы можете получить, выбрав интересующий диапазон дат из раскрывающегося списка и нажав кнопку "Ввод!".


*Определитесь, кто Вы:
робот инопланетянин человек

Внимание! Время в таблицах - всемирное. Для получения местного времени необходимо прибавить поправку, которая равна 9 ч.

Смотрите также архив погоды в соседних городах и на ближайших метеорологических станциях:

Погода в Айхале (Якутия, Россия) (156 км)
Погода в Чернышевском (Якутия, Россия) (175 км)
Погода в Шелагонцах (Якутия, Россия) (200 км)
Погода в Чумпуруке (Якутия, Россия) (215 км)
Погода в Полярном (Якутия, Россия) (237 км)
Погода в Туой-Хае (Якутия, Россия) (239 км)
Погода в Мирном (Якутия, Россия) (239 км)
Погода в Эйке (Якутия, Россия) (278 км)
Погода в Крестяхе (Якутия, Россия) (315 км)
Погода в Нюрбе (Якутия, Россия) (319 км)

Пояснения к столбцам:

Ветер - указаны скорость ветра в м/с - средняя за 10 мин, порывы в срок и между сроками (в фигурных скобках) и направление, откуда дует ветер: С - северный, СВ - северо-восточный, В - восточный, ЮВ - юго-восточный, Ю - южный, ЮЗ - юго-западный, З - западный, СЗ - северо-западный.
Видимость - горизонтальная дальность видимости в метрах или километрах. При видимости от 1 до 10 км при отсутствии осадков обычно наблюдается дымка, при ухудшении видимости до 1 км и менее - туман. В сухую погоду видимость может ухудшаться дымом, пылью или мглою.
Явления - указаны атмосферные явления, наблюдавшиеся в срок или в последний час перед сроком; фигурными скобками обозначены явления, наблюдавшиеся между сроками (за 1-3 часа до срока); квадратными скобками обозначены град или гололедные отложения с указанием их диаметра в мм.
Облачность - указаны через наклонную черту общая и нижняя облачность в баллах и высота нижней границы облаков в метрах; квадратными скобками обозначены формы облаков: Ci - перистые, Cs - перисто-слоистые, Cc - перисто-кучевые, Ac - высококучевые, As - высокослоистые, Sc - слоисто-кучевые, Ns - слоисто-дождевые, Cu - кучевые, Cb - кучево-дождевые. Подробнее классификацию облаков см. в Атласе облаков (PDF).
T - Температура воздуха - температура, измеренная на высоте 2 м над землей.
Td - Температура точки росы - температура, при понижении до которой содержащийся в воздухе водяной пар достигнет насыщения.
f - Относительная влажность воздуха - влажноcть воздуха, измеренная на высоте 2 м над землей.
Te - Эффективная температура - температура, которую ощущает одетый по сезону человек в тени. Характеристика душности погоды. При расчете учитывается влияние влажности воздуха и скорости ветра на теплоощущения человека.
Tes - Эффективная температура на солнце - температура, которую ощущает человек, с поправкой на солнечный нагрев. Характеристика знойности погоды. Зависит от высоты солнца над горизонтом, облачности и скорости ветра. Ночью, в пасмурную погоду, а также при ветре 12 м/с и более поправка равна нулю.
P - Атмосферное давление - приведенное к уровню моря атмосферное давление.
Po - Атмосферное давление - измеренное на уровне метеостанции атмосферное давление.
Tmin - Минимальная температура - минимум температуры воздуха на высоте 2 м над землей.
Tmax - Максимальная температура - максимум температуры воздуха на высоте 2 м над землей.
R - Количество осадков - Количество выпавших осадков за период времени, мм. При наведении курсора мыши на число - период времени, за который выпало указанное количество осадков.
R24 - Количество осадков - Количество выпавших осадков за 24 часа, мм.
S - Снежный покров - Высота снежного покрова, см. При наведении курсора мыши на число - состояние снежного покрова и степень покрытия местности в баллах.